Location: Eastview
(35.0756°N, 88.5453°W)
Time: 22:02:13
(UTC+00:00)

SeaSat 1 - Pass Details

Date: 22 November 2019
Orbit: 745 x 747 km, 108.0° (Epoch: 14 December)

Event Time Altitude Azimuth Distance (km) Brightness Sun altitude
Exits shadow 23:09:55 - 106° (ESE) 3,221 5.2 -5.6°
Rises 23:10:02 0° 105° (ESE) 3,179 5.2 -5.6°
Reaches altitude 10° 23:13:23 10° 81° (E) 2,260 4.3 -6.2°
Maximum altitude 23:15:48 14° 51° (NE) 2,008 4.1 -6.7°
Drops below altitude 10° 23:18:13 10° 21° (NNE) 2,266 4.6 -7.2°
Sets 23:21:35 0° 357° (N) 3,194 5.5 -7.8°
